Destin - Fort Walton Beach Weather Center

Moon Phase Calendar



Online Cameras

 


      

Current Conditions in Destin
1/28/2021 2:35:35 AM

48°F
Feels Like 36
Clear
Humidity
66%
Pressure
30.27"
Wind
17.3 mph (N)
Dew Point
37°F
UV Index
0/10 (Low)
Visibility
6 mi

Hourly Forecast

Date & Time Thu, Jan 28
2:00 AM
Thu, Jan 28
3:00 AM
Thu, Jan 28
4:00 AM
Thu, Jan 28
5:00 AM
Thu, Jan 28
6:00 AM
Thu, Jan 28
7:00 AM
Thu, Jan 28
8:00 AM
Thu, Jan 28
9:00 AM
Thu, Jan 28
10:00 AM
Thu, Jan 28
11:00 AM
Thu, Jan 28
12:00 PM
Thu, Jan 28
1:00 PM
Thu, Jan 28
2:00 PM
Thu, Jan 28
3:00 PM
Thu, Jan 28
4:00 PM
Thu, Jan 28
5:00 PM
Thu, Jan 28
6:00 PM
Thu, Jan 28
7:00 PM
Thu, Jan 28
8:00 PM
Thu, Jan 28
9:00 PM
Thu, Jan 28
10:00 PM
Thu, Jan 28
11:00 PM
Fri, Jan 29
12:00 AM
Fri, Jan 29
1:00 AM
Fri, Jan 29
2:00 AM
Fri, Jan 29
3:00 AM
Fri, Jan 29
4:00 AM
Fri, Jan 29
5:00 AM
Fri, Jan 29
6:00 AM
Fri, Jan 29
7:00 AM
Fri, Jan 29
8:00 AM
Fri, Jan 29
9:00 AM
Fri, Jan 29
10:00 AM
Fri, Jan 29
11:00 AM
Fri, Jan 29
12:00 PM
Fri, Jan 29
1:00 PM
Fri, Jan 29
2:00 PM
Fri, Jan 29
3:00 PM
Fri, Jan 29
4:00 PM
Fri, Jan 29
5:00 PM
Fri, Jan 29
6:00 PM
Fri, Jan 29
7:00 PM
Fri, Jan 29
8:00 PM
Fri, Jan 29
9:00 PM
Fri, Jan 29
10:00 PM
Fri, Jan 29
11:00 PM
Sat, Jan 30
12:00 AM
Sat, Jan 30
1:00 AM
Condition
Clear

Clouds

Clouds

Clouds

Clouds

Clear

Clear

Clear

Clear

Clear

Clear

Clear

Clear

Clear

Clear

Clear

Clear

Clear

Clear

Clear

Clear

Clear

Clear

Clouds

Clouds

Clear

Clear

Clear

Clear

Clear

Clear

Clear

Clear

Clear

Clear

Clear

Clear

Clear

Clear

Clear

Clear

Clear

Clear

Clear

Clear

Clear

Clear

Clouds
Temperature 48°F47°F46°F44°F43°F41°F42°F43°F46°F49°F51°F53°F55°F55°F54°F52°F50°F48°F47°F46°F45°F44°F43°F42°F41°F41°F40°F39°F39°F38°F41°F44°F48°F51°F54°F56°F57°F56°F55°F52°F51°F50°F50°F50°F49°F50°F50°F50°F
Feels Like 35°F34°F33°F31°F29°F28°F28°F31°F34°F37°F40°F42°F44°F44°F44°F43°F40°F39°F37°F36°F35°F34°F33°F33°F32°F32°F31°F30°F31°F30°F32°F36°F40°F44°F48°F51°F52°F51°F50°F46°F45°F45°F46°F45°F44°F44°F44°F44°F
Cloudiness 1%15%18%17%15%0%0%0%0%0%0%0%0%0%0%0%0%0%0%0%1%1%10%24%12%8%6%5%4%0%0%0%0%0%0%0%0%0%0%0%0%0%0%0%0%0%0%87%
Visibility 6 mi6 mi6 mi6 mi6 mi6 mi6 mi6 mi6 mi6 mi6 mi6 mi6 mi6 mi6 mi6 mi6 mi6 mi6 mi6 mi6 mi6 mi6 mi6 mi6 mi6 mi6 mi6 mi6 mi6 mi6 mi6 mi6 mi6 mi6 mi6 mi6 mi6 mi6 mi6 mi6 mi6 mi6 mi6 mi6 mi6 mi6 mi6 mi
Precipitation 0%0%0%0%0%0%0%0%0%0%0%0%0%0%0%0%0%0%0%0%0%0%0%0%0%0%0%0%0%0%0%0%0%0%0%0%0%0%0%0%0%0%0%0%0%0%0%0%
Humidity 66%71%73%74%75%74%70%63%57%52%48%46%46%47%49%54%58%60%61%64%65%67%67%67%68%70%72%72%74%74%67%59%50%44%40%38%37%38%40%47%49%49%49%50%51%53%55%57%
Dew Point 37°F38°F38°F36°F35°F34°F33°F32°F32°F32°F33°F34°F35°F35°F36°F36°F36°F35°F35°F35°F34°F34°F33°F32°F32°F31°F30°F30°F29°F29°F28°F27°F26°F26°F26°F27°F28°F29°F31°F33°F32°F32°F32°F32°F32°F33°F35°F36°F
Pressure 30.27"30.27"30.33"30.36"30.39"30.42"30.42"30.45"30.45"30.45"30.42"30.42"30.39"30.39"30.39"30.42"30.42"30.42"30.45"30.45"30.45"30.45"30.42"30.42"30.39"30.39"30.36"30.36"30.39"30.39"30.39"30.39"30.39"30.39"30.36"30.33"30.3"30.27"30.27"30.27"30.27"30.3"30.3"30.3"30.3"30.27"30.27"30.24"
Wind Speed 18.7 mph18.9 mph18.5 mph18.3 mph18.2 mph17.7 mph17.2 mph16.1 mph15.1 mph14.2 mph13.6 mph13.9 mph14 mph13.7 mph13.4 mph11.7 mph11.2 mph11.4 mph12.3 mph12.4 mph11.4 mph11.2 mph10.8 mph10 mph9.3 mph9.1 mph9 mph9.5 mph8.1 mph8.1 mph8.4 mph7.2 mph6.4 mph5.2 mph3.6 mph1.9 mph2.2 mph2.2 mph3.6 mph4.8 mph4.2 mph2.7 mph0.8 mph1.7 mph3 mph4.4 mph5.5 mph6.1 mph
Wind
Direction
350°
N
351°
N
353°
N
353°
N
354°
N
358°
N

N

N
10°
N
11°
N
10°
N
10°
N

N

N
10°
N

N

N

N

N

N
12°
NNE
12°
NNE
19°
NNE
22°
NNE
23°
NNE
26°
NNE
30°
NNE
30°
NNE
35°
NE
32°
NNE
46°
NE
51°
NE
53°
NE
55°
NE
57°
ENE
102°
ESE
161°
SSE
186°
S
190°
S
192°
SSW
214°
SW
229°
SW
233°
SW
84°
E
106°
ESE
122°
ESE
122°
ESE
114°
ESE

Daily Forecast

Date High Low Precip. Humidity
Today
Jan 28

Clear
55 °F
41 °F
0%
52%
Friday
Jan 29

Clear
57 °F
38 °F
0%
44%
Saturday
Jan 30

Rain
64 °F
50 °F
31%
66%
Sunday
Jan 31

Rain
71 °F
57 °F
100%
80%
Monday
Feb 1

Clear
55 °F
46 °F
0%
54%
Tuesday
Feb 2

Clear
56 °F
37 °F
0%
45%
Wednesday
Feb 3

Clear
57 °F
42 °F
0%
54%
Thursday
Feb 4

Rain
68 °F
61 °F
28%
71%
Friday
Feb 5

Rain
68 °F
50 °F
100%
55%
Saturday
Feb 6

Clouds
56 °F
44 °F
0%
42%
Sunday
Feb 7

Clear
59 °F
44 °F
0%
41%
Monday
Feb 8

Clear
59 °F
45 °F
4%
63%
Tuesday
Feb 9

Rain
59 °F
31 °F
80%
55%
Wednesday
Feb 10

Clear
39 °F
21 °F
0%
66%
Thursday
Feb 11

Clear
49 °F
31 °F
0%
52%
Friday
Feb 12

Rain
63 °F
48 °F
100%
81%


Temperature 8-14 Day Outlook



Precipitation 8-14 Day Outlook




Quick Links
Destin - Fort Walton Beach News
Destin - Fort Walton Beach Photos
Destin - Fort Walton Beach Videos




About Us
Contact Us
Site Map
Search Site
Advertise With Us
   
Destin.USGulf.info
THE DESTIN - FORT WALTON BEACH WEBSITE

Copyright 2021, Coastal Town
Privacy    |    Legal